Location: Namasale
(1.5000°N, 32.6167°E)
Time: 19:21:12
(UTC+00:00)

Envisat - Pass Details

Date: 11 December 2021
Orbit: 764 x 766 km, 98.2° (Epoch: 25 January)

Event Time Altitude Azimuth Distance (km) Brightness Sun altitude
Rises 03:02:53 0° 353° (N) 3,214 5.9 -9.8°
Reaches altitude 10° 03:05:25 10° 342° (NNW) 2,290 5.1 -9.2°
Maximum altitude 03:09:46 29° 282° (WNW) 1,359 3.8 -8.2°
Drops below altitude 10° 03:14:07 10° 223° (SW) 2,297 5.3 -7.2°
Sets 03:16:42 0° 212° (SSW) 3,225 6.1 -6.6°
